GW4947 Weather Reports


Display with metric or nautical units.
time (UTC)temp
F
wind
direction
speed
MPH
gust
MPH
rain 1hr
in
rain 24hr
in
rain mn
in
humidity
%
barometer
mb
20260505124823 89 86 2.0 2.0 0.00 0.00 0.06 69 1006.0
20260505124323 89 67 4.0 6.0 0.00 0.00 0.06 68 1006.0
20260505123823 89 133 5.0 7.0 0.00 0.00 0.06 68 1006.0
20260505123323 90 140 2.0 3.0 0.00 0.00 0.06 68 1005.0
20260505122822 90 65 3.0 5.0 0.00 0.00 0.06 68 1006.0
20260505122323 90 68 4.0 5.0 0.00 0.00 0.06 68 1006.0
20260505121822 90 131 2.0 2.0 0.00 0.00 0.06 68 1005.0
20260505121323 90 103 5.0 6.0 0.00 0.00 0.06 67 1005.0
20260505120822 91 96 3.0 6.0 0.00 0.00 0.06 67 1006.0
20260505120325 91 69 4.0 7.0 0.00 0.00 0.06 67 1005.0
20260505115822 91 77 4.0 7.0 0.00 0.00 0.06 66 1005.0
20260505115322 91 94 7.0 10.0 0.00 0.00 0.06 66 1005.0
20260505114824 92 56 3.0 5.0 0.00 0.00 0.06 66 1005.0
20260505114323 93 78 1.0 1.0 0.00 0.00 0.06 62 1005.0
20260505113822 93 145 3.0 6.0 0.00 0.00 0.06 62 1005.0
20260505113323 93 96 2.0 3.0 0.00 0.00 0.06 62 1005.0
20260505112822 93 129 1.0 1.0 0.00 0.00 0.06 63 1005.0
20260505112323 93 139 1.0 2.0 0.00 0.00 0.06 62 1005.0
20260505111822 93 112 3.0 3.0 0.00 0.00 0.06 62 1005.0
20260505111322 93 156 3.0 3.0 0.00 0.00 0.06 61 1005.0
20260505110823 94 88 2.0 2.0 0.00 0.00 0.06 61 1005.0
20260505110323 94 98 0.0 0.0 0.00 0.00 0.06 61 1005.0
20260505101824 98 132 3.0 3.0 0.00 0.00 0.06 53 1005.0
20260505101323 96 147 1.0 1.0 0.00 0.00 0.06 51 1005.0
20260505100822 97 156 3.0 3.0 0.00 0.00 0.06 51 1005.0
20260505100322 97 164 1.0 2.0 0.00 0.00 0.06 51 1005.0
20260505095823 97 115 3.0 3.0 0.00 0.00 0.06 50 1005.0
20260505095322 97 192 3.0 3.0 0.00 0.00 0.06 51 1005.0
20260505094822 97 153 2.0 2.0 0.00 0.00 0.06 51 1005.0
20260505094322 97 113 1.0 2.0 0.00 0.00 0.06 50 1005.0
20260505093823 97 163 0.0 1.0 0.00 0.00 0.06 51 1005.0
20260505093325 97 187 3.0 3.0 0.00 0.00 0.06 51 1005.0
20260505092822 97 88 1.0 2.0 0.00 0.00 0.06 52 1005.0
20260505092323 97 148 4.0 5.0 0.00 0.00 0.06 52 1005.0
20260505091822 97 151 2.0 2.0 0.00 0.00 0.06 53 1006.0
20260505091322 98 149 2.0 2.0 0.00 0.00 0.06 53 1005.0
20260505090824 99 139 1.0 2.0 0.00 0.00 0.06 50 1006.0
20260505090325 98 147 1.0 1.0 0.00 0.00 0.06 53 1006.0
20260505085823 98 194 3.0 3.0 0.00 0.00 0.06 51 1006.0
20260505085322 98 137 1.0 1.0 0.00 0.00 0.06 52 1006.0
20260505084822 98 126 1.0 1.0 0.00 0.00 0.06 52 1006.0
20260505084323 99 137 1.0 2.0 0.00 0.00 0.06 50 1006.0
20260505083823 99 93 0.0 1.0 0.00 0.00 0.06 49 1006.0
20260505083322 98 154 2.0 3.0 0.00 0.00 0.06 50 1006.0
20260505082823 98 179 2.0 2.0 0.00 0.00 0.06 52 1006.0
20260505082322 98 166 2.0 2.0 0.00 0.00 0.06 53 1006.0
20260505081822 97 153 2.0 2.0 0.00 0.00 0.06 52 1006.0
20260505081322 100 211 1.0 2.0 0.00 0.00 0.06 51 1006.0
20260505080823 98 131 1.0 1.0 0.00 0.00 0.06 51 1006.0
20260505080322 98 40 1.0 2.0 0.00 0.00 0.06 52 1006.0
20260505075822 97 141 2.0 2.0 0.00 0.00 0.06 52 1006.0
20260505075322 98 216 3.0 6.0 0.00 0.00 0.06 52 1007.0
20260505074826 96 111 1.0 1.0 0.00 0.00 0.06 55 1007.0
20260505074322 97 180 3.0 3.0 0.00 0.00 0.06 54 1007.0
20260505073822 98 110 1.0 1.0 0.00 0.00 0.06 53 1007.0
20260505073322 97 137 1.0 1.0 0.00 0.00 0.06 55 1007.0
20260505072822 97 162 3.0 3.0 0.00 0.00 0.06 54 1007.0
20260505072322 96 125 0.0 0.0 0.00 0.00 0.06 54 1007.0
20260505071822 97 140 2.0 2.0 0.00 0.00 0.06 54 1007.0
20260505071322 97 129 2.0 2.0 0.00 0.00 0.06 54 1007.0
20260505070822 97 159 2.0 3.0 0.00 0.00 0.06 56 1007.0
20260505070322 97 123 0.0 1.0 0.00 0.00 0.06 54 1007.0
20260505065822 97 175 1.0 1.0 0.00 0.00 0.06 56 1007.0
20260505065322 98 125 1.0 1.0 0.00 0.00 0.06 55 1007.0
20260505064822 97 151 1.0 1.0 0.00 0.00 0.06 54 1008.0
20260505064323 96 91 1.0 1.0 0.00 0.00 0.06 55 1008.0
20260505063824 94 101 1.0 1.0 0.00 0.00 0.06 56 1008.0
20260505063322 95 173 2.0 2.0 0.00 0.00 0.06 58 1008.0
20260505062824 95 186 2.0 2.0 0.00 0.00 0.06 59 1008.0
20260505062322 95 114 1.0 1.0 0.00 0.00 0.06 57 1008.0
20260505061822 95 76 1.0 1.0 0.00 0.00 0.06 57 1008.0
20260505061322 95 96 2.0 2.0 0.00 0.00 0.06 57 1008.0
20260505060824 95 96 1.0 1.0 0.00 0.00 0.06 57 1008.0
20260505060323 94 135 0.0 1.0 0.00 0.00 0.06 59 1008.0
20260505055823 94 149 2.0 2.0 0.00 0.00 0.06 57 1008.0
20260505055323 94 210 1.0 1.0 0.00 0.00 0.06 57 1009.0
20260505054824 93 124 0.0 0.0 0.00 0.00 0.06 60 1009.0
20260505054323 93 116 1.0 1.0 0.00 0.00 0.06 60 1009.0
20260505053822 92 71 2.0 2.0 0.00 0.00 0.06 62 1009.0
20260505053322 91 133 2.0 2.0 0.00 0.00 0.06 63 1009.0
20260505052822 90 160 1.0 2.0 0.00 0.00 0.06 64 1008.0
20260505052323 91 326 3.0 3.0 0.00 0.00 0.06 63 1009.0
20260505051822 90 49 1.0 2.0 0.00 0.00 0.06 67 1009.0
20260505051322 89 130 0.0 1.0 0.00 0.00 0.06 68 1009.0
20260505050824 89 134 1.0 2.0 0.00 0.00 0.06 68 1009.0
20260505050323 89 183 2.0 3.0 0.00 0.00 0.06 67 1009.0
20260505041322 86 109 1.0 1.0 0.00 0.00 0.06 72 1009.0
20260505040823 87 155 3.0 3.0 0.00 0.00 0.06 70 1010.0
20260505040322 86 144 4.0 5.0 0.00 0.00 0.06 71 1010.0
20260505035822 86 127 0.0 0.0 0.00 0.00 0.06 73 1009.0
20260505035324 84 155 3.0 3.0 0.00 0.00 0.06 74 1009.0
20260505034824 84 189 1.0 1.0 0.00 0.00 0.06 74 1010.0
20260505034323 84 126 1.0 2.0 0.00 0.00 0.06 75 1010.0
20260505033822 84 149 3.0 3.0 0.00 0.00 0.06 75 1009.0
20260505033323 83 123 1.0 1.0 0.00 0.00 0.06 77 1009.0
20260505032823 82 109 0.0 1.0 0.00 0.00 0.06 77 1009.0
20260505032322 82 131 1.0 2.0 0.00 0.00 0.06 78 1009.0
20260505031822 81 136 1.0 1.0 0.00 0.00 0.06 80 1009.0
20260505031322 81 133 0.0 1.0 0.00 0.00 0.06 81 1009.0
20260505030822 80 127 2.0 2.0 0.00 0.00 0.06 82 1009.0
20260505030325 80 187 1.0 2.0 0.00 0.00 0.06 82 1009.0
20260505025824 79 150 1.0 2.0 0.00 0.00 0.06 82 1009.0
20260505025324 79 136 1.0 1.0 0.00 0.00 0.06 83 1009.0
20260505024824 79 123 0.0 0.0 0.00 0.00 0.06 85 1009.0
20260505024324 78 131 0.0 0.0 0.00 0.00 0.06 85 1009.0
20260505023824 78 148 1.0 1.0 0.00 0.00 0.06 86 1009.0
20260505023323 78 188 1.0 2.0 0.00 0.00 0.06 86 1009.0
20260505022825 78 128 0.0 0.0 0.00 0.00 0.06 86 1009.0
20260505022324 78 154 1.0 3.0 0.00 0.00 0.06 86 1009.0
20260505021824 77 126 1.0 2.0 0.00 0.00 0.06 87 1009.0
20260505021324 77 139 1.0 1.0 0.00 0.00 0.06 87 1009.0
20260505020823 77 141 1.0 2.0 0.00 0.00 0.06 87 1009.0
20260505020322 77 123 2.0 2.0 0.00 0.00 0.06 87 1009.0
20260505015822 77 135 0.0 1.0 0.00 0.00 0.06 87 1009.0
20260505015322 77 141 2.0 2.0 0.00 0.00 0.06 87 1009.0
20260505014822 77 125 1.0 1.0 0.00 0.00 0.06 87 1009.0
20260505014324 77 132 1.0 1.0 0.00 0.00 0.06 87 1009.0
20260505013822 77 142 1.0 1.0 0.00 0.00 0.06 86 1009.0
20260505013323 77 131 1.0 1.0 0.00 0.00 0.06 86 1009.0
20260505012822 77 136 1.0 1.0 0.00 0.00 0.06 86 1008.0
20260505012322 77 135 1.0 2.0 0.00 0.00 0.06 85 1009.0
20260505011822 77 140 1.0 1.0 0.00 0.00 0.06 85 1008.0
20260505011322 77 139 1.0 1.0 0.00 0.00 0.06 85 1009.0
20260505010823 77 169 1.0 2.0 0.00 0.00 0.06 84 1008.0
20260505010323 77 136 0.0 0.0 0.00 0.00 0.06 84 1009.0
20260505005823 77 132 1.0 2.0 0.00 0.00 0.06 84 1008.0
20260505005325 77 118 0.0 0.0 0.00 0.00 0.06 84 1008.0
20260505004823 77 125 0.0 1.0 0.00 0.00 0.06 83 1008.0
20260505004322 77 123 0.0 0.0 0.00 0.00 0.06 83 1008.0
20260505003823 77 125 0.0 0.0 0.00 0.00 0.06 83 1008.0
20260505003322 77 136 0.0 1.0 0.00 0.00 0.06 83 1008.0
20260505002822 77 142 0.0 0.0 0.00 0.00 0.06 83 1008.0
20260505002322 77 166 2.0 3.0 0.00 0.00 0.06 82 1008.0
20260505001823 77 265 2.0 2.0 0.00 0.00 0.06 82 1008.0
20260505001322 77 165 2.0 2.0 0.00 0.00 0.06 83 1008.0
20260505000822 77 7 2.0 2.0 0.00 0.00 0.06 82 1007.0
20260505000322 77 65 2.0 2.0 0.00 0.00 0.06 83 1007.0
20260504235822 77 90 1.0 2.0 0.00 0.00 0.06 83 1007.0
20260504235322 77 92 1.0 2.0 0.00 0.00 0.06 84 1007.0
20260504234823 76 130 1.0 1.0 0.00 0.00 0.06 85 1007.0
20260504234322 76 224 1.0 1.0 0.00 0.00 0.06 86 1007.0
20260504233822 76 272 2.0 2.0 0.00 0.00 0.06 86 1007.0
20260504233323 76 98 2.0 2.0 0.00 0.00 0.06 87 1007.0
20260504232822 76 95 2.0 2.0 0.00 0.00 0.06 88 1007.0
20260504232323 75 349 2.0 2.0 0.00 0.00 0.06 89 1007.0
20260504231822 75 332 3.0 3.0 0.00 0.00 0.06 90 1007.0
20260504231324 75 84 2.0 2.0 0.00 0.00 0.06 90 1007.0
20260504230822 75 110 3.0 3.0 0.00 0.00 0.06 90 1007.0
20260504230323 75 95 2.0 2.0 0.00 0.00 0.06 90 1007.0
20260504225822 75 43 1.0 2.0 0.00 0.00 0.06 90 1007.0
20260504225323 75 80 1.0 1.0 0.00 0.00 0.06 89 1007.0
20260504224823 75 85 1.0 1.0 0.00 0.00 0.06 89 1007.0
20260504224327 75 116 1.0 1.0 0.00 0.00 0.06 89 1007.0
20260504223822 75 143 1.0 1.0 0.00 0.00 0.06 88 1007.0
20260504223322 75 121 0.0 1.0 0.00 0.00 0.06 88 1007.0
20260504222822 75 130 0.0 0.0 0.00 0.00 0.06 88 1007.0
20260504222322 76 140 1.0 1.0 0.00 0.00 0.06 88 1007.0
20260504221822 76 154 1.0 1.0 0.00 0.00 0.06 89 1007.0
20260504221322 76 161 1.0 1.0 0.00 0.00 0.06 90 1007.0
20260504220823 75 88 1.0 1.0 0.00 0.00 0.06 90 1007.0
20260504220322 75 128 0.0 0.0 0.00 0.00 0.06 90 1007.0
20260504215822 75 127 0.0 0.0 0.00 0.00 0.06 90 1007.0
20260504215324 75 121 0.0 0.0 0.00 0.00 0.06 90 1007.0
20260504214822 75 119 0.0 0.0 0.00 0.00 0.06 90 1007.0
20260504214323 75 147 1.0 2.0 0.00 0.00 0.06 90 1007.0
20260504213822 75 152 1.0 2.0 0.00 0.00 0.06 90 1007.0
20260504213322 75 129 0.0 0.0 0.00 0.00 0.06 91 1007.0
20260504212823 75 134 1.0 1.0 0.00 0.00 0.06 90 1007.0
20260504212322 75 119 0.0 0.0 0.00 0.00 0.06 90 1007.0
20260504211823 75 136 1.0 1.0 0.00 0.00 0.06 90 1007.0
20260504211322 75 124 0.0 0.0 0.07 0.00 0.06 89 1007.0
20260504210822 75 114 0.0 1.0 0.07 0.00 0.06 90 1007.0
20260504210322 75 129 0.0 1.0 0.00 0.00 0.05 90 1007.0
20260504205822 75 354 1.0 2.0 0.05 0.00 0.05 90 1008.0
20260504205322 75 287 2.0 2.0 0.12 0.00 0.05 90 1008.0
20260504204824 75 149 3.0 3.0 0.07 0.00 0.04 90 1008.0
20260504204322 75 116 0.0 1.0 0.07 0.00 0.04 90 1008.0
20260504203822 75 176 1.0 2.0 0.00 0.00 0.03 90 1008.0
20260504203322 75 279 2.0 2.0 0.05 0.00 0.03 89 1008.0
20260504202822 75 178 1.0 2.0 0.05 0.00 0.03 89 1008.0
20260504202324 75 135 1.0 1.0 0.00 0.00 0.02 89 1009.0
20260504201822 75 173 1.0 1.0 0.00 0.00 0.02 89 1008.0
20260504201322 75 186 1.0 2.0 0.00 0.00 0.02 89 1008.0
20260504200825 75 105 1.0 2.0 0.00 0.00 0.02 88 1008.0
20260504200322 75 130 1.0 1.0 0.00 0.00 0.02 88 1008.0
20260504195822 75 107 1.0 1.0 0.00 0.00 0.02 88 1008.0
20260504195323 75 72 1.0 2.0 0.00 0.00 0.02 88 1008.0
20260504194822 75 159 1.0 2.0 0.00 0.00 0.02 88 1008.0
20260504194324 75 122 1.0 1.0 0.07 0.00 0.02 88 1009.0
20260504193824 75 128 1.0 1.0 0.07 0.00 0.02 87 1009.0
20260504193323 75 139 1.0 2.0 0.00 0.00 0.01 87 1009.0
20260504192822 75 358 2.0 2.0 0.00 0.00 0.01 86 1009.0
20260504192323 75 33 1.0 2.0 0.00 0.00 0.01 86 1009.0
20260504191824 75 118 1.0 1.0 0.00 0.00 0.01 86 1009.0
20260504190835 76 136 2.0 2.0 0.05 0.00 0.01 85 1009.0
20260504190322 77 163 1.0 1.0 0.05 0.00 0.01 83 1009.0
20260504185824 77 119 1.0 2.0 0.00 0.00 0.00 82 1009.0
20260504185322 76 92 2.0 2.0 0.00 0.00 0.00 83 1009.0
20260504184822 76 109 1.0 1.0 0.00 0.00 0.00 82 1009.0
20260504184322 77 49 3.0 3.0 0.00 0.00 0.00 81 1009.0
20260504183822 77 261 5.0 6.0 0.00 0.00 0.00 80 1010.0
20260504183323 78 338 5.0 7.0 0.00 0.00 0.00 80 1010.0
20260504182822 78 307 3.0 5.0 0.00 0.00 0.00 81 1009.0
20260504182331 78 352 4.0 5.0 0.00 0.00 0.00 81 1009.0
20260504181823 77 54 2.0 3.0 0.00 0.00 0.00 82 1009.0
20260504181323 77 354 2.0 3.0 0.00 0.00 0.00 81 1009.0
20260504180825 77 56 3.0 3.0 0.00 0.00 0.00 81 1009.0
20260504180324 77 340 4.0 6.0 0.00 0.00 0.00 82 1009.0
20260504175822 76 3 6.0 8.0 0.00 0.00 0.00 83 1009.0
20260504175324 76 41 3.0 3.0 0.00 0.00 0.00 85 1009.0
20260504174823 76 16 3.0 3.0 0.00 0.00 0.00 85 1009.0
20260504174322 77 352 4.0 6.0 0.00 0.00 0.00 83 1009.0
20260504173822 77 283 3.0 3.0 0.00 0.00 0.00 82 1009.0
20260504173322 77 96 2.0 3.0 0.00 0.00 0.00 81 1009.0
20260504172823 78 245 5.0 7.0 0.00 0.00 0.00 78 1009.0
20260504172325 78 330 7.0 9.0 0.00 0.00 0.00 76 1009.0
20260504171823 78 3 4.0 5.0 0.00 0.00 0.00 78 1009.0
20260504171322 80 14 5.0 6.0 0.00 0.00 0.00 74 1009.0
20260504170824 80 171 3.0 5.0 0.00 0.00 0.00 74 1009.0
20260504170322 80 315 5.0 7.0 0.00 0.00 0.00 75 1009.0
20260504160322 87 136 1.0 1.0 0.00 0.00 0.00 78 1008.0
20260504150822 88 159 1.0 3.0 0.00 0.00 0.00 77 1007.0
20260504150322 88 137 2.0 2.0 0.00 0.00 0.00 77 1007.0
20260504141324 89 125 2.0 2.0 0.00 0.00 0.00 72 1007.0
20260504140825 89 138 1.0 2.0 0.00 0.00 0.00 71 1006.0
20260504140324 89 126 3.0 5.0 0.00 0.00 0.00 71 1006.0